Location: STAR School
(35.3054°N, 111.2976°W)
Time: 06:30:38
(UTC-07:00)

Transit 2A Rocket - Pass Details

Date: 31 May 2019
Orbit: 587 x 917 km, 66.7° (Epoch: 24 June)

Event Time Altitude Azimuth Distance (km) Brightness Sun altitude
Rises 00:53:26 0° 336° (NNW) 3,342 9.1 -32.3°
Reaches altitude 10° 00:56:01 10° 339° (NNW) 2,355 8.2 -32.3°
Enters shadow 00:59:54 44° 0° (N) 1,025 5.9 -32.1°
